Regional Weather Roundup
Issued by NWS

Home | Current Version | Previous Version | Text Only | Print | Product List | Glossary On
Versions: 1 2 3 4 5 6 7 8 9 10 11 12 13 14 15 16 17 18 19 20 21 22 23 24 25 26 27
000
ASUS46 KPQR 062210
RWROR

OREGON REGIONAL WEATHER ROUNDUP
NATIONAL WEATHER SERVICE PORTLAND OR
300 PM PDT FRI MAY 06 2016

NOTE: "FAIR" INDICATES FEW OR NO CLOUDS BELOW 12,000 FEET WITH
NO SIGNIFICANT WEATHER AND/OR OBSTRUCTIONS TO VISIBILITY.

ORZ001>013-062300-
NORTHWEST OREGON


CITY           SKY/WX    TMP DP  RH WIND       PRES   REMARKS
ASTORIA        SUNNY     70  51  51 NW15G24   29.99F
NEWPORT        SUNNY     59  54  82 N16G22    30.00S HAZE
PORTLAND       MOSUNNY   80  48  32 NW14      29.92F
VANCOUVER WA   SUNNY     79  50  36 N9        29.92F
SCAPPOOSE      SUNNY     80  50  34 N12       29.92F
HILLSBORO      SUNNY     80  51  36 W5        29.92F
AURORA         MOSUNNY   79  50  36 N10G17    29.92F
MCMINNVILLE    SUNNY     82  51  34 N10       29.93F
SALEM          SUNNY     80  50  34 N17       29.90F
CORVALLIS        N/A     81  52  36 N12G17    29.93F
EUGENE         PTSUNNY   76  55  48 N15       29.92F
$$

ORZ021-028-062300-
SOUTHWEST OREGON


CITY           SKY/WX    TMP DP  RH WIND       PRES   REMARKS
NORTH BEND     MOSUNNY   61  54  77 N24G30    29.96F
BROOKINGS      PTSUNNY   73  55  53 NW13G21   29.82S
ROSEBURG       PTSUNNY   77  49  37 N18       29.88F
SEXTON SUMMIT  CLOUDY    58  52  80 MISG      29.95S
MEDFORD        CLOUDY    72  52  49 CALM      29.87F
$$

ORZ014>016-041-062300-
COLUMBIA GORGE


CITY           SKY/WX    TMP DP  RH WIND       PRES   REMARKS
TROUTDALE      SUNNY     81  52  36 VRB6      29.90F
THE DALLES     MOSUNNY   82  48  30 VRB5      29.91F
$$

ORZ029>031-041-044-049-050-061>064-502-503-505>511-062300-
EASTERN OREGON


CITY           SKY/WX    TMP DP  RH WIND       PRES   REMARKS
REDMOND        PTSUNNY   67  46  47 N15G25    29.97F
BEND           CLOUDY    64  46  52 N14G22    29.98F
PRINEVILLE     CLOUDY    66  48  52 N15       29.96F
KLAMATH FALLS  CLOUDY    61  46  57 NE13G22   29.92S
LAKEVIEW       CLOUDY    55  46  71 N20G29    29.91F
HERMISTON      PTSUNNY   75  55  49 E3        29.90F
PENDLETON      CLOUDY    71  51  49 E10       29.93F
JOHN DAY       CLOUDY    64  51  62 W6        29.95F
MEACHAM        NOT AVBL
LA GRANDE      PTSUNNY   66  48  52 NW16G23   29.91F
BAKER CITY     PTSUNNY   68  51  54 NW22G30   29.90F
BURNS          PTSUNNY   69  47  45 N17       29.88F
ROME             N/A     67  50  54 N15       29.82F
ONTARIO        CLOUDY    80  49  33 NW16      29.78F
$$




USA.gov is the U.S. government's official web portal to all federal, state and local government web resources and services.